New York Downtown Manhattan/w, NY

3:06 AM EDT on June 20, 2019 (GMT -0400)
New York Downtown Manhattan/w

Weather History for KJRB - May, 2019

Change the Weather History Date:

Saturday, May 18, 2019

  Actual Average (WUND) Record (WUND)
Temperature  
Mean Temperature 66 °F -  
Max Temperature 77 °F - - (-1)
Min Temperature 57 °F - - (-1)
Cooling Degree Days 1    
Growing Degree Days 16 (Base 50)    
Moisture  
Dew Point 47 °F    
Average Humidity 54    
Maximum Humidity 70    
Minimum Humidity 33    
Precipitation  
Precipitation 0.04 in - - ()
Sea Level Pressure  
Sea Level Pressure 29.98 in    
Wind  
Wind Speed 3 mph ()    
Max Wind Speed 10 mph    
Max Gust Speed -    
Visibility 10.0 miles    
Events      
Averages and records for this station are not official NWS values.
T = Trace of Precipitation, MM = Missing Value Source: Averaged Metar Reports

Daily Weather History Graph

Daily Weather History Graph

Search for Another Location

Airport or City:

Astronomy

May. 18, 2019 Rise Set
Actual Time 5:36 AM EDT 8:08 PM EDT
Civil Twilight 5:05 AM EDT 8:40 PM EDT
Nautical Twilight 4:26 AM EDT 9:19 PM EDT
Astronomical Twilight 3:42 AM EDT 10:03 PM EDT
Moon 8:01 PM EDT (5/18) 5:42 AM EDT (5/18)
Length of Visible Light 15h 35m
Length of Day
14h 32m
Full, 100% of the Moon is Illuminated
May 18
Full
May 18
Full
May 26
Last Quarter
Jun 3
New
Jun 10
First Quarter

Hourly Weather History & Observations

Time (EDT) Temp. Dew Point Humidity Pressure Visibility Wind Dir Wind Speed Gust Speed Precip Events Conditions
12:56 AM 64.9 °F 55.0 °F 70% 29.85 in 10.0 mi Calm Calm - N/A   Mostly Cloudy
1:56 AM 64.0 °F 51.1 °F 63% 29.86 in 10.0 mi Calm Calm - N/A   Clear
2:56 AM 62.1 °F 48.0 °F 60% 29.86 in 10.0 mi Calm Calm - N/A   Clear
3:56 AM 61.0 °F 45.0 °F 56% 29.87 in 10.0 mi Calm Calm - N/A   Clear
4:56 AM 60.1 °F 44.1 °F 55% 29.88 in 10.0 mi Variable 3.5 mph - N/A   Clear
5:56 AM 57.9 °F 46.0 °F 65% 29.93 in 10.0 mi ENE 4.6 mph - N/A   Clear
6:56 AM 57.9 °F 46.9 °F 67% 29.96 in 10.0 mi Calm Calm - N/A   Clear
7:56 AM 59.0 °F 46.0 °F 62% 29.99 in 10.0 mi SSW 4.6 mph - 0.01 in   Clear
8:56 AM 61.0 °F 46.9 °F 60% 30.00 in 10.0 mi Variable 4.6 mph - N/A   Clear
9:56 AM 66.0 °F 45.0 °F 47% 30.02 in 10.0 mi Variable 5.8 mph - N/A   Clear
10:56 AM 68.0 °F 46.9 °F 47% 30.02 in 10.0 mi Variable 3.5 mph - 0.02 in   Clear
11:56 AM 70.0 °F 43.0 °F 38% 30.01 in 10.0 mi Variable 3.5 mph - N/A   Clear
1:56 PM 72.0 °F 41.0 °F 33% 30.00 in 10.0 mi SSW 5.8 mph - N/A   Clear
2:56 PM 75.0 °F 44.1 °F 33% 29.99 in 10.0 mi Calm Calm - 0.01 in   Clear
3:56 PM 75.0 °F 46.9 °F 37% 29.98 in 10.0 mi SSW 4.6 mph - N/A   Clear
4:56 PM 73.0 °F 46.9 °F 39% 29.99 in 10.0 mi South 5.8 mph - N/A   Clear
5:56 PM 69.1 °F 48.0 °F 47% 30.00 in 10.0 mi SSE 10.4 mph - N/A   Clear
6:56 PM 66.0 °F 46.0 °F 48% 30.01 in 10.0 mi SSE 6.9 mph - N/A   Clear
7:56 PM 63.0 °F 46.0 °F 54% 30.03 in 10.0 mi Variable 6.9 mph - N/A   Clear
8:56 PM 61.0 °F 46.9 °F 60% 30.05 in 10.0 mi Variable 3.5 mph - N/A   Clear
9:56 PM 61.0 °F 48.0 °F 62% 30.07 in 10.0 mi South 4.6 mph - N/A   Clear
10:56 PM 60.1 °F 48.9 °F 67% 30.09 in 10.0 mi SSW 3.5 mph - N/A   Clear
11:56 PM 60.1 °F 46.9 °F 62% 30.09 in 10.0 mi SW 4.6 mph - N/A   Clear